SL-16 DEB, 39709

Orbit data source: Space-Track

SL-16 DEB, 39709 is space debris in LEO originally from a launch on Fri, 25 Dec 1992 UTC launched from the Tyuratam Missile And Space Complex (TTMTR). Debris objects in space refer to the collection of defunct objects orbiting the Earth. Examples of debris include non-operational satellites, rocket bodies, and fragments generated from explosions, collisions, or faulty payload assembly.

Loading next visibility...
Identifier
39709, 1992-093JZ
Orbit
LEO
Country
Flag of CISCIS
Related business
Manufacturer
Unknown
Mission
Spacecraft
Bus & Motor
Unknown
Mass
Unknown
Launch date (UTC)
1992-12-25 (33 years ago)
Launch vehicle
Unknown
Launch site
Tyuratam Missile And Space Complex (TTMTR)
Object type
Payload
Rocket body
Debris
Shape & HBR
Unknown shape, 0.1 m
Radar Cross Section
Small (<0.1 m²)

Expand to show TLE details & history
Last TLE update: 2 days ago

TLE from 2 days ago
0 SL-16 DEB
1 39709U 92093JZ  25304.54222930  .00000510  00000-0  38288-3 0  9990
2 39709  71.1472  43.1050 0141990  25.2627 335.5340 13.94331232586332
Epoch: 2025-10-31T13:00Z
TLE epoch observation values (Epoch: 2025-10-31T13:00:48.611Z)
Latitude
-0.00005°
Longitude
167.81727°
Altitude
821.884 km
Speed
7.49 km/s
True Right ascension
02h 52m 25s
True Declination
0° 00' 00"
Sunlit
Object was in full shadow at epoch
Visualization orbit readout
Latitude
Unknown
Longitude
Unknown
Altitude
Unknown
Speed
Unknown
Apparent Right ascension
Unknown
Apparent Declination
Unknown
Sunlit
N/A
Visualization observer readout
Local Sidereal Time
12:19:52
Azimuth
Unknown
Elevation
Unknown
Doppler factor
Unknown
Orbital elements
Apogee altitude
1,014.926 km
Perigee altitude
807.917 km
Semi-major axis
7,289.559 km
Eccentricity
0.0142
Inclination
71.1472°
RAAN
43.105°
Arg. of periapsis
25.2627°
True anomaly
334.8491°
Mean anomaly
335.534°
Eccentric anomaly
335.19266°
Mean motion
3.48732 °/min
Orbital period
103.23 mins
BSTAR
0.00038288
Loading maneuver chart data...
Computing Atmospheric mass density...
Loading historical data...
Loading historical data...
Loading historical data...
Loading historical data...
Loading historical data...
Loading historical data...
Loading historical data...

Documentation

Showing up to 5 results
|